Volver al catálogo

COSMOS 2251 DEB

ActivoLEO
NORAD 37499·DEBRIS·🇷🇺 Russia

Lanzado Jun 16, 1993 desde Plesetsk Cosmodrome

Loading…

Próximos Pases (próximas 24 horas)

TLE

ActualizadoSource: Space-Track

Época: Sep 13, 2026, 18:53 UTC

1 37499U 93036BMC 26256.78734906  .00000213  00000-0  84231-4 0  9996
2 37499  74.0384 178.5670 0028256 192.4331 167.6127 14.34546084890938

Sigue COSMOS 2251 DEB en tiempo real con AllMySat

Download on the App Store